This is the latest recevied weather packets stored in our database for station/object WA7CUG. If no packets are shown the sender has not sent any weather packets the latest 10 day(s).
| Time | Temp. | Humidity | Pressure | Rain* | Wind** | Luminosity | Snow |
|---|---|---|---|---|---|---|---|
| 1777659681 | 18.89° C | 45% | 1018.8 hPa | 0 mm | - | 573 W/m² | - |
| 1777659378 | 18.89° C | 44% | 1018.9 hPa | 0 mm | - | 532 W/m² | - |
| 1777659075 | 18.89° C | 48% | 1018.9 hPa | 0 mm | - | 532 W/m² | - |
| 1777658773 | 18.33° C | 45% | 1019 hPa | 0 mm | - | 525 W/m² | - |
| 1777658469 | 18.89° C | 47% | 1019.2 hPa | 0 mm | - | 528 W/m² | - |
| 1777658166 | 17.78° C | 47% | 1019.1 hPa | 0 mm | - | 549 W/m² | - |
| 1777657862 | 18.33° C | 50% | 1019.1 hPa | 0 mm | - | 506 W/m² | - |
| 1777657559 | 17.78° C | 47% | 1019 hPa | 0 mm | - | 471 W/m² | - |
| 1777657257 | 17.78° C | 47% | 1019.3 hPa | 0 mm | - | 497 W/m² | - |
| 1777656954 | 17.22° C | 48% | 1019.4 hPa | 0 mm | - | 491 W/m² | - |
| 1777656650 | 16.67° C | 53% | 1019.2 hPa | 0 mm | - | 537 W/m² | - |
| 1777656346 | 16.67° C | 51% | 1019.4 hPa | 0 mm | - | 524 W/m² | - |
| 1777656042 | 16.67° C | 53% | 1019.3 hPa | 0 mm | - | 461 W/m² | - |
| 1777655738 | 16.67° C | 55% | 1019.4 hPa | 0 mm | - | 464 W/m² | - |
| 1777655435 | 16.67° C | 58% | 1019.5 hPa | 0 mm | - | 457 W/m² | - |
| 1777655132 | 16.11° C | 54% | 1019.4 hPa | 0 mm | - | 465 W/m² | - |
| 1777654829 | 16.11° C | 54% | 1019.4 hPa | 0 mm | - | 454 W/m² | - |
| 1777654527 | 15° C | 57% | 1019.6 hPa | 0 mm | - | 458 W/m² | - |
| 1777654224 | 15° C | 60% | 1019.5 hPa | 0 mm | - | 450 W/m² | - |
| 1777653922 | 15° C | 57% | 1019.7 hPa | 0 mm | - | 430 W/m² | - |
| 1777653618 | 15° C | 58% | 1019.6 hPa | 0 mm | - | 364 W/m² | - |
| 1777653315 | 15° C | 59% | 1019.9 hPa | 0 mm | - | 310 W/m² | - |
| 1777653011 | 14.44° C | 57% | 1019.8 hPa | 0 mm | - | 295 W/m² | - |
| 1777652708 | 14.44° C | 59% | 1019.7 hPa | 0 mm | - | 338 W/m² | - |
| 1777652405 | 14.44° C | 60% | 1020.1 hPa | 0 mm | - | 337 W/m² | - |
* Rain latest hour (hover to see other rain measurements)
** Current wind speed in m/s (hover to see current wind gust speed)